Simultaneous Nadir Overpasses (SNOs) Predictions

Prediction of SNOs between METOP-A and NOAA-19 Satellite Orbit:

Table of predicted SNOs for the next 14.0 days since TLE Epoch: 2/20/2021
Index Date (METOP-A) Time (METOP-A) Lat,Lon (METOP-A) SZA (METOP-A ) Date (NOAA-19) Time (NOAA-19) Lat,Lon (NOAA-19) SZA (NOAA-19 ) Distance(km) Time Diff (sec)
1 02/23/2021 00:36:22 80.83,-177.50 90.69 02/23/2021 00:35:11 80.85,-177.49 90.70 1.34 71
2 02/23/2021 01:27:02 -80.86, -9.81 89.29 02/23/2021 01:26:10 -80.84, -9.92 89.32 2.53 52
3 02/23/2021 02:17:43 80.85, 157.36 90.68 02/23/2021 02:17:10 80.84, 157.54 90.68 3.26 33
4 02/23/2021 03:08:24 -80.85, -35.30 89.33 02/23/2021 03:08:10 -80.84, -35.26 89.34 0.92 14
5 02/23/2021 03:59:05 80.84, 131.87 90.65 02/23/2021 03:59:11 80.84, 131.83 90.65 1.08 6
6 02/23/2021 04:49:46 -80.84, -60.79 89.37 02/23/2021 04:50:10 -80.84, -60.60 89.36 3.29 24
7 02/23/2021 05:40:27 80.83, 106.39 90.61 02/23/2021 05:41:11 80.84, 106.48 90.63 2.34 44
8 02/23/2021 06:31:07 -80.85, -85.93 89.38 02/23/2021 06:32:10 -80.84, -85.94 89.39 1.37 63



Historial Predications of SNOs between METOP-A and NOAA-19
